THY432 LTFM-LTBJ

Flight info

Callsign THY432
Flight time 0h 42m
Altitude 30000
Route IVGUS1D/35L IVGUS UM19 OVZOK
Aircraft B38M/M-SDE1FGHILORVWXY/HB1

Departure

Time 2026-05-07 15:06
Airport İstanbul Airport (LTFM)

Arrival

Time 2026-05-07 15:48
Airport Adnan Menderes International Airport (LTBJ)
Time Latitude Longitude Altitude Speed Heading
2026-05-07 14:44 41.26641 28.73428 332 ft 0 kts 71°
2026-05-07 14:58 41.26639 28.73420 336 ft 2 kts 68°
2026-05-07 14:59 41.26631 28.73400 331 ft 2 kts 59°
2026-05-07 14:59 41.26622 28.73382 332 ft 2 kts 46°
2026-05-07 14:59 41.26609 28.73369 335 ft 2 kts 26°
2026-05-07 14:59 41.26593 28.73362 334 ft 2 kts
2026-05-07 15:00 41.26577 28.73364 336 ft 2 kts 347°
2026-05-07 15:00 41.26566 28.73368 331 ft 1 kts 340°
2026-05-07 15:00 41.26565 28.73369 331 ft 0 kts 339°
2026-05-07 15:02 41.26567 28.73368 331 ft 1 kts 339°
2026-05-07 15:03 41.26598 28.73315 336 ft 14 kts 282°
2026-05-07 15:03 41.26599 28.73166 336 ft 18 kts 269°
2026-05-07 15:03 41.26596 28.72995 333 ft 18 kts 269°
2026-05-07 15:03 41.26595 28.72851 334 ft 20 kts 269°
2026-05-07 15:04 41.26592 28.72635 336 ft 19 kts 269°
2026-05-07 15:04 41.26624 28.72518 336 ft 10 kts 343°
2026-05-07 15:04 41.26643 28.72517 336 ft 0 kts 359°
2026-05-07 15:05 41.26674 28.72516 335 ft 28 kts 359°
2026-05-07 15:05 41.27166 28.72506 332 ft 111 kts 359°
2026-05-07 15:05 41.28174 28.72485 390 ft 173 kts
2026-05-07 15:06 41.29503 28.72457 933 ft 204 kts
2026-05-07 15:06 41.31009 28.72436 1724 ft 223 kts 359°
2026-05-07 15:06 41.32630 28.72443 2137 ft 249 kts 359°
2026-05-07 15:06 41.34469 28.72473 2397 ft 275 kts 359°
2026-05-07 15:07 41.36328 28.72122 3441 ft 261 kts 332°
2026-05-07 15:07 41.37636 28.70610 4581 ft 251 kts 300°
2026-05-07 15:07 41.38146 28.68375 5317 ft 259 kts 272°
2026-05-07 15:07 41.38122 28.65971 6200 ft 261 kts 270°
2026-05-07 15:08 41.38108 28.63534 7002 ft 266 kts 270°
2026-05-07 15:08 41.38087 28.61064 7823 ft 269 kts 270°
2026-05-07 15:08 41.37768 28.58633 8624 ft 274 kts 248°
2026-05-07 15:08 41.36640 28.56568 9427 ft 283 kts 222°
2026-05-07 15:09 41.34889 28.55334 10182 ft 292 kts 197°
2026-05-07 15:09 41.32816 28.55096 10652 ft 311 kts 180°
2026-05-07 15:09 41.30578 28.55165 10976 ft 331 kts 181°
2026-05-07 15:09 41.28203 28.55219 11321 ft 349 kts 180°
2026-05-07 15:10 41.26571 28.55255 11598 ft 358 kts 181°
2026-05-07 15:10 41.24118 28.54765 12313 ft 358 kts 200°
2026-05-07 15:10 41.21762 28.53643 13045 ft 363 kts 201°
2026-05-07 15:10 41.18711 28.51768 14036 ft 367 kts 207°
2026-05-07 15:11 41.16395 28.50284 14724 ft 372 kts 207°
2026-05-07 15:11 41.14045 28.48799 15435 ft 376 kts 207°
2026-05-07 15:11 41.12443 28.47795 15921 ft 379 kts 207°
2026-05-07 15:11 41.10087 28.46324 16600 ft 383 kts 207°
2026-05-07 15:12 41.07681 28.44826 17271 ft 387 kts 207°
2026-05-07 15:12 41.05223 28.43297 17935 ft 392 kts 207°
2026-05-07 15:12 41.02744 28.41757 18580 ft 396 kts 207°
2026-05-07 15:12 41.00235 28.40199 19147 ft 400 kts 207°
2026-05-07 15:13 40.97702 28.38629 19697 ft 404 kts 207°
2026-05-07 15:13 40.95142 28.37042 20245 ft 408 kts 207°
2026-05-07 15:13 40.92560 28.35444 20817 ft 411 kts 208°
2026-05-07 15:13 40.89953 28.33832 21371 ft 415 kts 208°
2026-05-07 15:14 40.87334 28.32213 21887 ft 419 kts 208°
2026-05-07 15:14 40.84740 28.30612 22406 ft 423 kts 208°
2026-05-07 15:14 40.82064 28.28961 22929 ft 427 kts 208°
2026-05-07 15:14 40.79356 28.27292 23431 ft 431 kts 208°
2026-05-07 15:15 40.76630 28.25614 23907 ft 434 kts 208°
2026-05-07 15:15 40.73882 28.23923 24367 ft 437 kts 208°
2026-05-07 15:15 40.71121 28.22226 24814 ft 439 kts 208°
2026-05-07 15:15 40.68343 28.20520 25259 ft 442 kts 208°
2026-05-07 15:16 40.65566 28.18816 25702 ft 444 kts 208°
2026-05-07 15:16 40.62759 28.17096 26121 ft 447 kts 208°
2026-05-07 15:16 40.59935 28.15367 26550 ft 449 kts 208°
2026-05-07 15:16 40.57095 28.13629 26967 ft 451 kts 208°
2026-05-07 15:17 40.54273 28.11905 27374 ft 454 kts 208°
2026-05-07 15:17 40.51407 28.10154 27775 ft 457 kts 209°
2026-05-07 15:17 40.48513 28.08389 28168 ft 459 kts 209°
2026-05-07 15:17 40.45607 28.06618 28563 ft 461 kts 208°
2026-05-07 15:18 40.42704 28.04850 28942 ft 464 kts 208°
2026-05-07 15:18 40.39765 28.03063 29113 ft 469 kts 208°
2026-05-07 15:18 40.33791 27.99434 29088 ft 474 kts 208°
2026-05-07 15:19 40.27841 27.95827 29086 ft 474 kts 208°
2026-05-07 15:19 40.21845 27.92199 29091 ft 475 kts 208°
2026-05-07 15:20 40.15861 27.88586 29090 ft 475 kts 208°
2026-05-07 15:20 40.09861 27.84970 29092 ft 473 kts 208°
2026-05-07 15:21 40.03892 27.81379 29098 ft 472 kts 208°
2026-05-07 15:21 39.97936 27.77803 29098 ft 472 kts 208°
2026-05-07 15:22 39.92010 27.74253 29096 ft 470 kts 208°
2026-05-07 15:22 39.86087 27.70711 29101 ft 470 kts 208°
2026-05-07 15:23 39.80150 27.67166 29105 ft 470 kts 208°
2026-05-07 15:23 39.74220 27.63634 29103 ft 468 kts 208°
2026-05-07 15:24 39.68315 27.60123 29108 ft 468 kts 208°
2026-05-07 15:24 39.62429 27.56629 29109 ft 468 kts 208°
2026-05-07 15:25 39.56509 27.53122 29103 ft 468 kts 208°
2026-05-07 15:25 39.50610 27.49634 29110 ft 468 kts 208°
2026-05-07 15:26 39.44689 27.46139 29107 ft 468 kts 208°
2026-05-07 15:26 39.41752 27.44408 28061 ft 469 kts 208°
2026-05-07 15:26 39.38758 27.42645 27102 ft 472 kts 208°
2026-05-07 15:27 39.35928 27.40674 26409 ft 465 kts 213°
2026-05-07 15:27 39.33148 27.38569 25764 ft 461 kts 213°
2026-05-07 15:27 39.30404 27.36478 25105 ft 457 kts 213°
2026-05-07 15:27 39.27697 27.34413 24448 ft 454 kts 213°
2026-05-07 15:28 39.24979 27.32339 23780 ft 452 kts 213°
2026-05-07 15:28 39.22283 27.30283 23009 ft 449 kts 213°
2026-05-07 15:28 39.19601 27.28240 22330 ft 445 kts 213°
2026-05-07 15:28 39.16952 27.26223 21684 ft 440 kts 213°
2026-05-07 15:29 39.14325 27.24225 21043 ft 436 kts 213°
2026-05-07 15:29 39.11723 27.22248 20412 ft 433 kts 213°
2026-05-07 15:29 39.09172 27.20311 19785 ft 430 kts 213°
2026-05-07 15:29 39.06622 27.18377 19159 ft 427 kts 213°
2026-05-07 15:30 39.04002 27.16581 18426 ft 430 kts 204°
2026-05-07 15:30 39.01075 27.15699 17687 ft 435 kts 186°
2026-05-07 15:30 38.98095 27.15992 17508 ft 425 kts 170°
2026-05-07 15:30 38.95346 27.17265 17242 ft 418 kts 154°
2026-05-07 15:31 38.92847 27.19105 17016 ft 408 kts 151°
2026-05-07 15:31 38.90446 27.20953 16797 ft 398 kts 150°
2026-05-07 15:31 38.88106 27.22754 16635 ft 387 kts 154°
2026-05-07 15:31 38.85640 27.23818 16421 ft 373 kts 171°
2026-05-07 15:32 38.83158 27.24551 16264 ft 363 kts 169°
2026-05-07 15:32 38.80731 27.25293 16105 ft 355 kts 169°
2026-05-07 15:32 38.78354 27.26014 15759 ft 348 kts 169°
2026-05-07 15:32 38.76039 27.26713 15468 ft 335 kts 169°
2026-05-07 15:33 38.73808 27.27385 15153 ft 324 kts 169°
2026-05-07 15:33 38.71637 27.28039 14845 ft 318 kts 169°
2026-05-07 15:33 38.69484 27.28687 14509 ft 317 kts 169°
2026-05-07 15:33 38.67337 27.29332 14181 ft 317 kts 169°
2026-05-07 15:34 38.65190 27.29977 13799 ft 317 kts 169°
2026-05-07 15:34 38.63046 27.30621 13449 ft 315 kts 168°
2026-05-07 15:34 38.60917 27.31260 13125 ft 313 kts 168°
2026-05-07 15:34 38.58813 27.31891 12785 ft 312 kts 168°
2026-05-07 15:35 38.56734 27.32514 12449 ft 309 kts 168°
2026-05-07 15:35 38.54668 27.33132 12329 ft 300 kts 168°
2026-05-07 15:35 38.52667 27.33731 12201 ft 291 kts 168°
2026-05-07 15:35 38.50712 27.34215 12015 ft 282 kts 180°
2026-05-07 15:36 38.48846 27.33837 11725 ft 274 kts 205°
2026-05-07 15:36 38.47306 27.32503 11429 ft 266 kts 230°
2026-05-07 15:36 38.46342 27.30548 11146 ft 258 kts 252°
2026-05-07 15:36 38.45809 27.28383 10893 ft 256 kts 256°
2026-05-07 15:37 38.45321 27.26168 10619 ft 262 kts 257°
2026-05-07 15:37 38.44857 27.23919 10423 ft 261 kts 258°
2026-05-07 15:37 38.44421 27.21720 10259 ft 258 kts 258°
2026-05-07 15:37 38.43988 27.19491 9942 ft 260 kts 258°
2026-05-07 15:38 38.43562 27.17261 9560 ft 260 kts 258°
2026-05-07 15:38 38.43140 27.15025 9253 ft 259 kts 258°
2026-05-07 15:38 38.42721 27.12800 8960 ft 257 kts 258°
2026-05-07 15:38 38.42308 27.10596 8690 ft 255 kts 258°
2026-05-07 15:39 38.41900 27.08422 8416 ft 253 kts 258°
2026-05-07 15:39 38.41492 27.06249 8140 ft 251 kts 258°
2026-05-07 15:39 38.41362 27.04062 7812 ft 248 kts 282°
2026-05-07 15:39 38.42070 27.02095 7490 ft 246 kts 311°
2026-05-07 15:40 38.43386 27.00801 7216 ft 243 kts 336°
2026-05-07 15:40 38.44985 27.00166 6979 ft 239 kts 345°
2026-05-07 15:40 38.46591 26.99629 6711 ft 238 kts 345°
2026-05-07 15:40 38.48190 26.99111 6443 ft 237 kts 346°
2026-05-07 15:41 38.49777 26.98608 6250 ft 232 kts 346°
2026-05-07 15:41 38.51352 26.98303 6118 ft 229 kts
2026-05-07 15:41 38.52834 26.98964 5914 ft 226 kts 36°
2026-05-07 15:41 38.53830 27.00451 5716 ft 220 kts 64°
2026-05-07 15:42 38.54191 27.02326 5419 ft 219 kts 91°
2026-05-07 15:42 38.53801 27.04107 5154 ft 208 kts 124°
2026-05-07 15:42 38.52843 27.05411 4879 ft 197 kts 142°
2026-05-07 15:42 38.51786 27.06425 4631 ft 184 kts 145°
2026-05-07 15:43 38.50762 27.07314 4396 ft 173 kts 152°
2026-05-07 15:43 38.49706 27.08038 4170 ft 172 kts 154°
2026-05-07 15:43 38.48629 27.08697 3956 ft 172 kts 158°
2026-05-07 15:43 38.47528 27.09299 3748 ft 172 kts 159°
2026-05-07 15:44 38.46455 27.09958 3522 ft 171 kts 158°
2026-05-07 15:44 38.45346 27.10507 3323 ft 170 kts 163°
2026-05-07 15:44 38.44219 27.10937 3101 ft 168 kts 168°
2026-05-07 15:44 38.43110 27.11297 2882 ft 161 kts 170°
2026-05-07 15:45 38.42052 27.11621 2666 ft 153 kts 170°
2026-05-07 15:45 38.41028 27.11928 2466 ft 150 kts 171°
2026-05-07 15:45 38.40023 27.12229 2245 ft 150 kts 171°
2026-05-07 15:45 38.39005 27.12535 2048 ft 150 kts 169°
2026-05-07 15:46 38.36966 27.13153 1687 ft 150 kts 168°
2026-05-07 15:46 38.35959 27.13459 1482 ft 149 kts 169°
2026-05-07 15:46 38.34955 27.13757 1289 ft 147 kts 169°
2026-05-07 15:47 38.33962 27.14045 1100 ft 147 kts 170°
2026-05-07 15:47 38.32977 27.14351 911 ft 149 kts 168°
2026-05-07 15:47 38.31958 27.14660 727 ft 151 kts 171°
2026-05-07 15:47 38.30946 27.14964 552 ft 148 kts 169°
2026-05-07 15:48 38.29987 27.15252 420 ft 131 kts 169°
2026-05-07 15:48 38.29295 27.15460 420 ft 76 kts 166°
2026-05-07 15:48 38.28889 27.15584 420 ft 50 kts 166°
2026-05-07 15:48 38.28657 27.15653 414 ft 26 kts 167°
2026-05-07 15:49 38.28575 27.15577 422 ft 20 kts 257°
2026-05-07 15:49 38.28562 27.15447 421 ft 5 kts 305°
2026-05-07 15:49 38.28634 27.15412 415 ft 19 kts 346°
2026-05-07 15:49 38.28809 27.15358 413 ft 32 kts 347°
2026-05-07 15:50 38.28989 27.15299 413 ft 18 kts 329°
2026-05-07 15:50 38.29040 27.15224 411 ft 16 kts 337°
2026-05-07 15:50 38.29158 27.15187 412 ft 12 kts 347°
2026-05-07 15:50 38.29206 27.15157 414 ft 7 kts 296°
2026-05-07 15:51 38.29201 27.15087 407 ft 7 kts 256°
2026-05-07 15:51 38.29200 27.15082 410 ft 0 kts 256°